Location: Lake Mineral Wells State Park
(32.8157°N, 98.0290°W)
Time: 20:02:00
(UTC-06:00)

Envisat - Pass Details

Date: 27 October 2019
Orbit: 764 x 766 km, 98.1° (Epoch: 17 November)

Event Time Altitude Azimuth Distance (km) Brightness Sun altitude
Rises 06:58:47 0° 41° (NE) 3,231 6.7 -10.5°
Reaches altitude 10° 07:03:16 10° 78° (ENE) 2,299 6.7 -9.5°
Maximum altitude 07:04:26 11° 92° (E) 2,246 7.0 -9.3°
Drops below altitude 10° 07:05:36 10° 105° (ESE) 2,295 7.1 -9.0°
Sets 07:10:02 0° 142° (SE) 3,214 7.0 -8.1°
